EHI
6 3 1 0 0 0 0 0 0 0 0 0 0 0 0 0 0 0 0 0 0 0 0 1 2 2 1 2 3 3 1 0 0 0 0 0 1 2 2 2 3 2 1 2 2 1 1 3 5
3 2 0 0 0 0 0 0 0 0 0 0 0 0 0 0 0 0 0 0 0 0 0 0 1 1 1 2 4 4 2 0 0 0 0 0 1 2 3 3 4 4 2 2 2 2 1 3 5
2 1 0 0 0 0 0 0 0 0 0 0 0 0 0 0 0 0 0 0 0 0 0 1 2 2 2 3 5 5 3 1 0 0 0 0 1 3 4 5 5 4 3 2 2 2 2 3 4
1 0 0 0 0 0 0 0 0 0 0 0 0 0 0 0 0 0 0 0 0 0 0 3 6 7 6 6 5 4 2 1 0 0 0 1 3 4 4 4 5 4 3 1 1 1 2 2 2
0 0 0 0 0 0 0 0 0 0 0 0 0 0 0 0 0 0 0 0 0 1 1 4 8 10 8 6 3 1 1 1 0 0 1 2 3 4 4 3 2 2 2 1 0 1 1 0 0
0 0 0 0 0 0 0 0 0 0 0 0 0 0 0 0 0 0 1 1 2 2 3 5 7 9 8 5 2 0 0 0 0 1 1 2 3 3 2 1 0 1 1 0 1 1 1 1 1
0 0 0 0 0 0 0 0 0 0 0 0 0 0 0 0 0 0 1 2 2 3 4 5 6 6 5 2 1 1 0 0 0 0 1 1 2 2 1 1 1 1 1 1 2 2 2 2 2
0 0 0 0 0 0 0 0 0 1 1 1 1 1 2 1 1 1 1 1 1 3 3 4 5 3 2 1 2 2 1 0 0 0 1 1 1 1 1 2 3 3 2 3 3 3 3 4 4
0 0 0 0 0 0 0 0 1 2 2 2 2 2 3 3 2 2 2 1 1 2 2 3 3 1 0 1 2 2 1 0 0 0 1 1 1 0 1 2 4 4 3 3 3 3 3 4 3
0 0 0 0 0 0 0 1 2 3 2 1 1 2 3 3 3 3 3 2 1 1 1 1 1 1 0 0 1 1 0 0 0 0 1 1 0 0 0 2 3 3 2 2 2 2 2 2 2
0 0 0 0 0 0 1 2 3 2 1 0 1 2 3 3 3 3 2 2 1 0 0 0 0 0 0 0 0 0 0 0 0 0 0 0 0 0 0 1 1 1 1 1 1 0 1 1 0
0 0 0 0 1 1 2 3 3 2 1 0 1 3 3 2 2 1 1 1 0 0 0 0 0 0 0 0 0 0 0 0 0 0 0 0 0 0 0 0 0 0 0 0 0 0 0 0 0
0 0 0 1 2 3 3 3 3 2 1 1 2 2 2 1 1 0 0 0 0 0 0 0 0 0 0 0 0 0 0 0 0 0 0 0 0 0 0 1 1 0 0 0 0 0 0 0 0
0 0 0 1 2 3 3 3 3 2 1 2 2 1 1 0 0 0 0 0 0 0 0 0 0 0 0 0 0 0 0 0 1 1 0 0 0 0 1 1 1 0 0 0 0 0 0 0 0
0 0 0 1 2 3 3 3 3 2 2 2 2 1 0 0 0 0 0 0 0 0 0 0 0 0 0 1 1 1 0 0 1 1 0 0 0 0 1 1 1 0 0 0 0 0 0 0 0
0 0 0 0 1 3 3 3 3 3 3 2 1 0 0 0 0 0 0 0 0 0 0 0 0 0 0 0 0 0 0 0 1 1 0 0 0 0 0 0 0 0 0 0 0 0 0 0 0
0 0 0 0 1 2 3 2 2 2 3 2 0 0 0 0 0 0 0 0 0 0 0 0 0 0 0 0 0 0 0 0 0 0 0 0 0 0 0 0 0 0 0 0 0 0 0 0 0
0 0 0 0 1 2 2 1 1 1 2 2 1 1 0 0 0 0 0 1 1 0 0 0 0 0 0 0 0 0 0 0 0 0 0 0 0 0 0 0 0 0 0 0 0 0 0 0 0
0 0 0 0 0 1 1 0 0 1 1 2 2 1 1 1 1 1 2 2 2 1 0 0 0 0 0 0 0 0 0 0 0 0 0 0 0 0 0 0 0 0 0 0 0 0 0 0 0
0 0 0 0 0 0 0 0 0 0 0 1 1 1 1 2 2 3 3 3 2 1 1 1 0 0 0 0 0 0 0 0 0 0 0 0 0 0 0 0 0 0 0 0 0 0 0 0 0
0 0 0 0 0 0 0 0 0 0 0 0 1 1 2 3 3 3 4 4 3 3 2 1 0 0 0 0 0 0 0 0 0 0 0 0 0 0 0 0 0 0 0 0 0 0 0 0 0
0 0 0 0 0 0 0 0 0 0 0 0 0 0 1 3 3 3 4 4 5 5 3 1 0 0 0 0 0 0 0 0 0 0 0 0 0 0 0 0 0 0 0 0 0 1 1 0 0
0 0 0 0 0 0 0 0 0 0 0 0 0 0 1 2 3 4 5 5 5 5 3 1 0 0 0 0 0 0 0 0 0 0 0 0 0 0 0 0 0 0 0 0 1 1 1 0 0
0 0 0 0 0 0 0 0 0 0 0 0 0 0 0 1 3 4 5 5 6 6 4 2 1 0 0 0 1 1 1 0 0 0 0 0 0 0 0 0 0 0 0 0 1 1 0 0 0
0 0 0 0 0 0 0 0 0 0 0 0 0 0 0 1 2 3 5 7 8 7 6 5 3 2 1 1 2 2 1 0 0 0 0 0 0 0 0 0 0 0 0 0 1 1 1 1 1
0 0 0 0 0 0 0 0 0 0 0 0 0 0 0 1 2 3 5 9 11 9 9 9 7 5 4 4 4 3 2 1 1 0 0 0 0 0 0 0 0 0 0 0 0 1 2 2 2
0 0 0 0 0 0 0 0 0 0 0 1 1 1 1 1 2 3 5 9 13 13 12 13 11 9 8 7 6 5 3 3 2 1 0 0 0 0 0 0 0 0 0 0 0 1 1 1 2
0 0 0 0 0 0 0 0 0 0 1 2 3 3 3 3 3 3 4 9 14 14 14 15 14 12 10 10 8 7 6 4 3 2 1 1 1 1 1 1 0 0 0 0 0 0 0 1 2
0 0 0 0 0 0 0 0 0 0 2 3 4 5 5 4 3 4 5 8 12 14 14 15 14 13 12 12 11 9 7 5 3 2 2 2 2 3 3 3 1 0 0 0 0 0 0 1 2
0 0 0 0 0 0 0 0 0 1 2 3 4 6 6 4 4 5 5 7 11 14 14 15 14 13 13 13 12 10 7 5 4 2 1 1 2 4 5 4 2 1 0 0 0 0 1 2 4
Wind_Speed
9 7 3 1 4 5 2 2 1 2 3 2 4 5 6 3 1 1 0 3 4 2 0 2 3 5 6 7 8 8 9 10 10 9 9 10 10 11 12 13 13 15 14 15 15 16 17 17 16
7 6 2 3 5 3 2 2 2 2 4 3 5 5 5 3 2 3 1 2 4 3 1 2 4 5 6 7 8 8 8 9 9 9 9 10 10 11 12 12 13 14 14 15 16 16 16 16 16
7 3 3 4 3 2 1 0 4 5 3 2 4 4 4 2 2 2 2 5 4 2 1 2 5 5 6 7 7 8 8 8 9 9 9 11 10 11 12 13 13 14 14 15 15 15 15 15 15
3 2 4 5 2 1 2 3 5 5 3 4 4 4 3 3 2 3 5 6 5 2 1 2 5 5 5 6 6 7 8 8 8 9 10 10 10 11 12 13 13 13 13 13 14 14 14 14 14
2 4 6 4 2 1 1 3 3 3 3 3 4 4 3 4 5 7 6 5 4 2 2 1 5 5 5 6 6 7 8 8 8 8 9 9 9 10 12 12 12 12 12 13 14 14 13 13 13
4 4 5 1 2 2 2 2 3 4 4 4 4 4 2 2 5 6 6 5 3 2 2 2 4 5 6 5 6 7 8 8 8 8 8 9 9 10 11 12 12 12 12 13 13 13 13 12 12
4 4 3 2 0 0 2 2 4 4 4 3 4 4 1 1 3 5 5 4 3 3 2 2 2 2 5 6 6 7 7 7 7 7 8 8 9 9 10 11 12 11 11 13 13 13 12 11 10
4 4 2 1 2 1 3 3 3 5 4 4 4 5 4 4 6 6 5 4 3 3 2 2 2 3 3 3 5 7 7 6 6 6 7 8 8 9 10 10 11 11 11 11 12 11 11 10 8
3 4 2 4 5 3 4 4 2 3 5 3 2 4 5 9 9 7 5 3 2 1 2 2 2 2 2 2 3 5 5 5 5 5 7 6 4 5 6 8 10 10 10 10 9 9 9 8 7
4 3 6 5 5 5 5 5 5 4 4 2 4 6 9 10 8 7 6 4 3 1 0 1 1 2 2 2 3 2 3 3 4 3 4 3 4 4 5 7 8 8 8 8 8 8 7 5 3
4 5 4 3 4 6 6 4 4 7 3 5 8 10 11 9 7 7 6 5 4 2 1 1 1 1 2 1 2 2 2 2 3 3 4 3 4 3 3 3 3 4 5 4 5 5 3 3 3
3 3 3 3 5 6 7 5 4 4 5 6 10 13 11 10 8 8 7 5 3 3 2 1 1 1 2 2 1 1 1 1 1 2 3 3 2 3 2 2 3 3 2 3 3 2 3 3 3
1 0 1 4 6 5 6 5 4 1 4 9 11 11 10 9 7 5 5 4 3 3 3 3 2 2 2 2 1 2 1 1 1 1 2 3 3 2 2 2 2 2 2 2 2 2 3 3 3
1 3 4 4 4 3 6 3 3 2 7 10 10 10 9 8 7 5 4 4 4 4 4 3 3 3 3 2 2 1 1 1 1 1 2 3 3 3 2 2 2 2 2 2 2 2 2 2 2
3 5 5 3 3 3 6 2 2 5 9 9 9 8 8 7 7 7 7 6 5 5 4 4 4 3 3 3 2 2 1 2 1 1 2 3 3 3 2 2 2 1 2 2 2 3 2 2 3
5 5 2 1 2 3 6 3 3 7 10 8 8 8 7 6 7 6 6 5 5 4 4 4 4 4 3 3 2 1 2 2 1 1 2 2 3 3 3 2 1 2 2 2 2 2 3 3 3
4 1 2 2 2 3 4 3 3 7 9 8 7 7 7 5 5 5 5 5 5 6 5 4 3 4 4 3 2 2 2 2 1 1 1 2 3 4 3 2 2 2 2 2 2 2 2 3 3
3 2 2 3 2 4 3 3 4 7 8 8 7 6 6 7 7 6 5 5 5 5 5 5 4 4 4 3 2 2 2 1 1 1 1 2 2 4 3 2 2 3 2 2 2 3 3 2 2
4 3 2 3 2 4 4 4 6 8 7 7 7 7 7 8 6 4 4 5 5 5 4 5 4 4 4 2 2 2 1 1 1 1 2 2 3 4 3 3 2 3 3 3 4 3 4 2 2
3 2 1 1 1 3 2 3 4 8 11 10 9 9 9 6 4 5 5 5 6 6 5 5 5 5 4 3 2 2 2 1 1 1 1 2 3 3 3 3 3 3 3 3 3 3 3 2 2
1 4 4 2 2 2 2 3 2 4 5 5 6 7 7 9 9 7 7 7 6 6 7 6 5 4 4 4 3 2 2 2 1 1 1 2 3 3 3 4 3 3 3 3 3 3 4 3 1
3 3 4 4 4 1 1 2 5 3 4 7 8 8 9 9 9 8 8 8 8 8 6 5 5 5 4 5 4 4 3 2 2 1 1 1 2 2 3 3 3 3 3 3 3 3 3 4 2
3 3 4 3 3 1 1 1 7 1 5 9 10 11 10 10 10 11 11 10 8 7 7 6 5 4 4 5 5 5 3 2 1 1 1 1 1 2 2 3 3 3 3 3 3 3 3 3 3
6 7 7 6 5 1 3 2 6 4 7 7 9 10 10 10 10 9 8 7 6 6 6 6 5 4 4 5 5 5 5 4 3 2 2 1 1 1 2 3 3 3 3 3 3 3 4 3 3
5 7 4 4 3 4 2 2 9 7 6 7 7 9 9 9 10 9 9 9 8 8 7 6 6 5 5 5 5 5 5 5 5 4 3 3 2 1 2 3 3 3 3 3 3 3 3 4 4
4 8 8 5 4 4 1 5 8 5 4 4 4 5 7 8 9 10 11 10 10 9 9 8 7 6 5 5 5 5 5 4 3 4 3 4 3 3 3 3 4 4 4 4 3 3 3 3 4
6 4 6 7 2 0 5 7 9 2 1 1 1 3 5 7 9 9 10 10 10 9 9 9 9 7 6 6 5 4 4 4 4 3 3 3 3 3 3 3 3 3 4 4 4 3 3 3 4
6 8 6 6 6 3 4 5 6 5 4 2 3 4 4 5 6 7 9 10 10 9 9 8 8 8 7 6 6 5 5 5 4 3 4 3 3 3 3 3 3 3 3 4 4 3 3 3 3
4 4 5 5 6 7 3 8 7 7 6 5 5 5 6 6 7 7 8 9 9 8 8 8 8 7 6 6 6 5 4 4 4 4 4 4 3 4 4 4 3 4 4 4 4 4 4 4 4
5 7 8 6 4 4 5 9 5 5 5 4 4 3 4 5 6 6 7 8 8 8 8 9 8 8 7 7 6 5 4 4 4 4 4 4 4 4 4 3 3 4 4 4 4 5 4 5 5
Wind_Direction
149 138 134 107 54 47 19 342 71 74 61 42 74 85 95 83 110 144 253 131 123 112 80 127 108 102 102 100 98 98 98 98 98 97 102 106 110 115 120 122 122 124 123 125 125 127 127 127 127
144 149 138 65 73 57 329 336 78 82 131 124 73 71 72 63 65 98 93 124 118 117 102 121 111 104 105 105 101 99 101 101 98 95 98 110 113 118 119 119 120 125 123 122 122 125 126 125 127
159 175 92 70 82 150 202 129 113 105 113 89 72 60 71 83 104 125 147 124 111 107 105 130 109 103 107 106 106 103 103 100 98 95 101 111 115 118 118 119 120 123 124 123 124 125 125 124 126
156 83 56 64 50 237 181 159 137 128 75 55 83 65 56 58 110 126 120 117 114 111 97 122 111 105 108 113 109 108 106 103 98 96 103 108 114 116 118 119 120 122 122 122 123 126 125 125 128
80 78 55 38 354 349 111 143 133 110 81 66 82 79 37 15 91 111 114 114 113 94 71 101 109 107 112 114 115 114 109 108 105 101 101 104 108 113 117 119 120 119 118 121 121 122 122 124 128
62 66 73 39 340 33 94 119 106 93 94 89 89 87 44 69 100 116 114 109 104 91 66 73 102 104 113 114 116 117 115 115 113 106 101 98 102 111 115 118 119 118 118 120 122 121 123 123 129
101 90 121 166 146 75 155 120 117 121 115 125 118 95 76 109 115 114 105 98 90 78 63 43 47 80 109 105 109 117 115 112 109 104 99 97 96 110 117 118 118 119 118 120 121 122 124 121 125
127 99 94 181 165 199 144 115 126 127 118 125 119 133 174 175 126 106 94 84 80 73 61 48 37 43 60 87 106 112 113 113 111 107 99 95 99 106 114 112 116 115 115 117 121 124 124 121 121
106 80 186 204 182 186 147 129 139 95 113 123 113 146 154 135 125 115 105 86 83 86 40 53 54 50 55 71 97 97 96 94 98 102 102 91 76 89 103 110 115 116 115 117 120 118 118 115 114
108 140 218 205 180 165 154 145 147 111 117 95 81 96 121 133 139 144 149 157 166 178 146 55 81 79 73 79 69 59 63 62 62 67 79 73 75 83 94 108 117 119 115 114 111 109 107 100 93
157 189 208 184 164 147 142 136 131 131 176 185 158 146 145 148 153 161 169 175 183 181 178 137 132 120 116 79 74 61 59 62 63 70 79 79 73 76 74 77 95 100 104 93 93 92 83 87 90
169 230 174 161 143 139 148 138 126 171 207 164 154 150 153 161 169 176 177 180 173 168 191 175 157 139 124 106 87 82 74 73 72 79 97 97 88 78 77 79 78 79 81 83 82 86 82 87 90
145 243 101 127 124 131 122 127 139 188 126 128 139 150 162 170 177 181 175 171 168 176 187 179 170 160 142 127 127 112 107 103 92 90 106 113 110 107 97 91 86 83 88 92 92 88 82 82 87
117 77 76 87 107 121 118 110 111 173 135 138 151 164 174 179 179 173 175 178 185 189 190 179 174 172 150 143 145 146 142 117 101 105 120 123 121 123 118 106 96 93 101 103 103 98 91 86 91
75 71 54 57 96 123 108 81 206 162 145 153 166 174 180 186 183 188 192 189 190 191 185 178 175 165 158 155 159 147 143 127 128 127 127 129 130 135 135 130 124 119 113 108 102 95 93 98 97
56 63 55 283 122 133 128 219 210 154 154 169 178 181 186 193 197 200 194 189 182 174 172 177 171 157 159 156 155 144 138 134 138 123 124 136 140 139 135 141 145 128 115 113 114 107 98 90 94
42 108 236 268 181 149 159 216 182 157 164 181 187 188 188 193 204 204 193 186 177 172 168 165 157 154 157 154 145 136 127 137 145 133 137 144 141 142 137 143 144 131 120 120 126 107 111 107 98
221 209 221 229 214 158 185 218 176 173 178 189 192 193 192 198 208 198 184 178 171 165 163 159 154 150 144 133 116 107 108 116 123 146 161 155 150 147 141 140 137 130 121 119 120 116 107 113 110
178 164 207 244 208 155 206 221 195 185 190 197 200 199 203 211 207 180 170 163 155 154 158 162 157 156 142 131 139 142 155 155 148 172 165 158 156 150 146 146 139 139 141 146 140 126 121 117 114
141 140 195 314 66 143 203 259 214 195 202 202 202 203 204 203 186 180 169 163 164 167 169 167 168 166 164 161 152 148 140 147 154 154 143 156 160 160 159 154 151 143 137 138 144 140 133 142 137
201 184 195 177 73 52 88 327 247 227 210 212 213 205 202 198 192 187 181 179 174 177 179 181 177 171 170 156 125 102 84 73 85 118 167 173 166 164 157 162 155 152 153 163 169 161 156 160 150
251 225 165 138 116 301 131 265 277 229 221 219 218 210 206 203 191 187 184 184 186 188 180 175 173 170 167 154 150 152 158 171 197 187 186 178 164 164 164 162 162 163 162 171 184 172 160 152 164
190 105 99 108 118 60 6 155 285 233 233 234 223 217 209 199 190 189 190 190 188 182 175 171 165 171 170 165 165 162 164 176 164 146 159 176 169 178 177 174 168 172 174 181 186 168 167 166 169
131 77 57 51 71 10 254 173 276 236 223 232 220 216 209 196 191 192 187 177 176 173 170 168 168 181 175 170 170 173 174 171 161 169 179 192 192 196 199 188 185 187 185 189 193 184 179 183 181
104 96 48 6 16 255 256 201 252 251 237 227 218 212 201 192 187 183 178 178 179 178 177 174 174 186 180 177 181 185 185 179 183 187 192 191 193 207 214 200 195 196 196 196 192 189 195 192 191
165 140 154 184 212 269 294 234 256 271 264 246 220 198 185 186 184 185 185 184 184 183 181 177 180 188 185 185 192 190 188 188 196 196 193 198 206 214 207 198 201 202 195 195 190 194 205 199 205
135 167 156 131 135 218 276 282 300 301 317 279 160 148 177 187 182 182 181 181 183 183 185 184 184 186 188 193 191 193 195 195 200 201 203 207 210 211 201 194 199 200 198 195 187 199 208 199 208
138 144 108 122 144 222 280 269 254 266 254 230 185 178 188 183 178 178 181 183 184 186 184 183 185 187 188 191 197 200 199 200 199 194 204 207 210 212 204 201 199 200 201 197 194 205 214 211 219
115 114 116 121 149 159 227 264 231 223 224 214 210 190 187 184 184 183 185 185 180 177 178 183 189 184 187 191 195 197 196 195 191 199 208 205 205 202 206 208 201 201 204 201 203 215 212 217 227
153 159 147 151 195 175 179 258 269 220 222 205 212 200 179 178 182 182 179 174 174 179 184 189 192 191 193 189 187 193 193 189 193 208 214 203 205 208 208 203 203 209 212 208 210 223 222 221 228